Date String (YYYY-MM-DD hh:mm:ss) UTC,Instrument flags,absolute air pressure of the measurement (hPa),sample flow rate (lpm),inlet stack bypass flow (lpm),air temperature of the measurement (°C),ambient temperature measured by the external sensor (°C),aerosol sample conditioner tube jacket temperature (°C),OPC LED temperature (°C),internal box temperature (°C),relative humidity of the measurement (%),span deviation,mass concentration of particles derived from Lorenz-Mie calculation of OPC scattering (μg/m³),mass concentration of particles derived from Lorenz-Mie calculation of OPC scattering (μg/m³),mass concentration of particles derived from Lorenz-Mie calculation of OPC scattering (μg/m³)
DateTimeUTC,F1_M11,P_M11,Q1_M11,Q2_M11,T1_M11,T2_M11,T3_M11,T4_M11,T5_M11,U1_M11,ZSPAN_M11,X0_M11,X2_M11,X1_M11
2024-03-26 22:00:00,SystemResetWarning,0820.6,5.01,000.00,020.5,019.6,000.0,029.1,022.3,17.1,0001.0,0016.13,0012.33,0011.82
2024-03-26 22:01:00,SystemResetWarning,0820.6,5.00,000.00,020.5,019.6,000.0,029.1,022.2,17.3,0000.9,0015.95,0012.34,0011.82
2024-03-26 22:02:00,SystemResetWarning,0820.6,5.00,000.00,020.4,019.6,000.0,029.1,022.2,17.0,0001.0,0015.80,0012.35,0011.83
2024-03-26 22:03:00,SystemResetWarning,0820.6,5.00,000.00,020.4,019.5,000.0,029.1,022.2,17.0,0000.8,0015.88,0012.36,0011.82
2024-03-26 22:04:00,SystemResetWarning,0820.6,5.01,000.00,020.4,019.5,000.0,029.1,022.2,17.3,0000.6,0015.87,0012.38,0011.84
2024-03-26 22:05:00,SystemResetWarning,0820.5,4.99,000.00,020.4,019.6,000.0,029.1,022.2,17.3,0000.7,0015.70,0012.36,0011.83
2024-03-26 22:06:00,SystemResetWarning,0820.5,4.99,000.00,020.4,019.5,000.0,029.1,022.2,17.2,0001.1,0016.64,0012.34,0011.78
2024-03-26 22:07:00,SystemResetWarning,0820.5,5.01,000.00,020.4,019.5,000.0,029.1,022.2,17.1,0001.1,0016.52,0012.30,0011.74
2024-03-26 22:08:00,SystemResetWarning,0820.6,5.01,000.00,020.4,019.5,000.0,029.1,022.1,16.9,0001.3,0016.96,0012.25,0011.70
2024-03-26 22:09:00,SystemResetWarning,0820.6,5.01,000.00,020.4,019.4,000.0,029.1,022.1,16.8,0001.4,0017.01,0012.21,0011.67
2024-03-26 22:10:00,SystemResetWarning,0820.5,5.00,000.00,020.3,019.4,000.0,029.0,022.1,17.3,0001.0,0016.95,0012.14,0011.64
2024-03-26 22:11:00,SystemResetWarning,0820.5,5.00,000.00,020.3,019.4,000.0,029.0,022.1,17.3,0000.8,0016.77,0012.08,0011.62
2024-03-26 22:12:00,SystemResetWarning,0820.7,4.99,000.00,020.3,019.3,000.0,029.0,022.1,17.7,0000.8,0016.87,0012.12,0011.63
2024-03-26 22:13:00,SystemResetWarning,0820.6,4.99,000.00,020.3,019.3,000.0,029.0,022.0,17.8,0000.7,0016.82,0012.10,0011.64
2024-03-26 22:14:00,SystemResetWarning,0820.7,5.00,000.00,020.3,019.3,000.0,029.0,022.0,17.6,0001.0,0016.77,0012.05,0011.62
2024-03-26 22:15:00,SystemResetWarning,0820.5,5.02,000.00,020.3,019.3,000.0,029.0,022.0,17.7,0001.2,0016.72,0012.01,0011.57
2024-03-26 22:16:00,SystemResetWarning,0820.5,5.00,000.00,020.3,019.3,000.0,029.0,022.0,17.6,0001.1,0016.52,0011.99,0011.55
2024-03-26 22:17:00,SystemResetWarning,0820.6,4.99,000.00,020.3,019.3,000.0,029.0,022.0,17.8,0001.0,0015.83,0011.98,0011.55
2024-03-26 22:18:00,SystemResetWarning,0820.5,5.00,000.00,020.2,019.3,000.0,029.0,022.0,18.9,0000.9,0015.67,0012.06,0011.60
2024-03-26 22:19:00,SystemResetWarning,0820.5,5.00,000.00,020.2,019.3,000.0,028.9,022.0,18.6,0000.9,0015.19,0012.12,0011.66
2024-03-26 22:20:00,SystemResetWarning,0820.5,5.00,000.00,020.2,019.3,000.0,028.9,022.0,18.0,0001.0,0015.16,0012.17,0011.71
2024-03-26 22:21:00,SystemResetWarning,0820.5,5.00,000.00,020.2,019.3,000.0,028.9,022.0,18.2,0000.7,0015.98,0012.21,0011.74
2024-03-26 22:22:00,SystemResetWarning,0820.6,4.99,000.00,020.2,019.3,000.0,028.9,022.0,17.8,0000.7,0016.15,0012.25,0011.73
2024-03-26 22:23:00,SystemResetWarning,0820.5,5.01,000.00,020.2,019.3,000.0,028.9,021.9,17.9,0000.5,0016.05,0012.22,0011.70
2024-03-26 22:24:00,SystemResetWarning,0820.6,5.01,000.00,020.2,019.2,000.0,028.9,021.9,17.7,0000.4,0016.05,0012.20,0011.67
2024-03-26 22:25:00,SystemResetWarning,0820.6,4.99,000.00,020.2,019.2,000.0,028.9,021.9,17.8,0000.1,0016.26,0012.22,0011.68
2024-03-26 22:26:00,SystemResetWarning,0820.6,4.99,000.00,020.1,019.2,000.0,028.9,021.9,17.5,-000.1,0016.44,0012.21,0011.70
2024-03-26 22:27:00,SystemResetWarning,0820.6,4.99,000.00,020.1,019.2,000.0,028.8,021.9,18.2,0000.2,0017.23,0012.32,0011.76
2024-03-26 22:28:00,SystemResetWarning,0820.6,5.01,000.00,020.1,019.2,000.0,028.8,021.9,17.9,0000.3,0017.60,0012.42,0011.84
2024-03-26 22:29:00,SystemResetWarning,0820.6,5.01,000.00,020.1,019.2,000.0,028.8,021.9,17.7,0000.4,0017.41,0012.42,0011.87
2024-03-26 22:30:00,SystemResetWarning,0820.6,4.99,000.00,020.1,019.2,000.0,028.8,021.9,18.1,0000.5,0017.42,0012.46,0011.89
2024-03-26 22:31:00,SystemResetWarning,0820.6,4.99,000.00,020.1,019.3,000.0,028.8,021.9,18.1,0000.1,0017.51,0012.52,0011.93
2024-03-26 22:32:00,SystemResetWarning,0820.6,5.00,000.00,020.1,019.3,000.0,028.8,021.9,18.0,-000.1,0017.17,0012.59,0012.00
2024-03-26 22:33:00,SystemResetWarning,0820.6,5.01,000.00,020.1,019.3,000.0,028.8,021.9,18.2,-000.1,0017.35,0012.64,0012.05
2024-03-26 22:34:00,SystemResetWarning,0820.6,5.01,000.00,020.1,019.3,000.0,028.8,021.9,17.9,-000.2,0018.62,0012.67,0012.10
2024-03-26 22:35:00,SystemResetWarning,0820.6,5.01,000.00,020.1,019.3,000.0,028.8,021.9,18.1,0000.2,0018.78,0012.72,0012.15
2024-03-26 22:36:00,SystemResetWarning,0820.7,5.00,000.00,020.1,019.3,000.0,028.8,021.9,18.0,0000.4,0019.07,0012.79,0012.23
2024-03-26 22:37:00,SystemResetWarning,0820.6,5.00,000.00,020.1,019.3,000.0,028.8,021.9,18.2,0000.7,0019.04,0012.87,0012.29
2024-03-26 22:38:00,SystemResetWarning,0820.6,5.00,000.00,020.1,019.3,000.0,028.7,021.9,18.2,0000.6,0018.62,0012.90,0012.32
2024-03-26 22:39:00,SystemResetWarning,0820.6,5.00,000.00,020.1,019.3,000.0,028.7,021.9,18.1,0000.5,0017.86,0012.86,0012.34
2024-03-26 22:40:00,SystemResetWarning,0820.6,5.00,000.00,020.1,019.3,000.0,028.7,021.9,18.3,0000.4,0017.88,0012.89,0012.37
2024-03-26 22:41:00,SystemResetWarning,0820.6,5.00,000.00,020.1,019.3,000.0,028.7,021.9,18.0,0000.2,0018.12,0012.91,0012.38
2024-03-26 22:42:00,SystemResetWarning,0820.6,4.99,000.00,020.1,019.3,000.0,028.7,021.9,18.3,0000.5,0018.48,0012.92,0012.39
2024-03-26 22:43:00,SystemResetWarning,0820.6,5.01,000.00,020.1,019.3,000.0,028.7,021.9,18.3,0000.6,0018.58,0012.93,0012.38
2024-03-26 22:44:00,SystemResetWarning,0820.5,5.01,000.00,020.1,019.4,000.0,028.7,021.9,18.2,0000.9,0018.83,0012.95,0012.39
2024-03-26 22:45:00,SystemResetWarning,0820.5,5.01,000.00,020.1,019.4,000.0,028.7,021.9,18.3,0001.4,0017.61,0012.99,0012.42
2024-03-26 22:46:00,SystemResetWarning,0820.6,4.99,000.00,020.1,019.4,000.0,028.7,021.9,18.3,0001.2,0017.27,0013.02,0012.44
2024-03-26 22:47:00,SystemResetWarning,0820.5,4.99,000.00,020.1,019.4,000.0,028.7,022.0,18.1,0001.1,0017.25,0013.04,0012.44
2024-03-26 22:48:00,SystemResetWarning,0820.9,4.99,000.00,020.1,019.5,000.0,028.7,022.0,18.2,0001.1,0017.53,0013.04,0012.44
2024-03-26 22:49:00,SystemResetWarning,0820.5,5.00,000.00,020.2,019.5,000.0,028.7,022.0,18.3,0001.3,0017.85,0013.04,0012.45
2024-03-26 22:50:00,SystemResetWarning,0820.8,5.00,000.00,020.2,019.5,000.0,028.7,022.0,18.4,0001.2,0018.05,0013.01,0012.42
2024-03-26 22:51:00,SystemResetWarning,0820.6,5.01,000.00,020.2,019.5,000.0,028.7,022.0,18.5,0001.3,0018.08,0012.96,0012.35
2024-03-26 22:52:00,SystemResetWarning,0820.9,5.00,000.00,020.2,019.5,000.0,028.7,022.0,17.9,0001.3,0018.06,0012.85,0012.26
2024-03-26 22:53:00,SystemResetWarning,0820.9,5.00,000.00,020.2,019.5,000.0,028.7,022.0,18.3,0001.3,0017.54,0012.75,0012.19
2024-03-26 22:54:00,SystemResetWarning,0820.9,5.00,000.00,020.2,019.5,000.0,028.7,022.0,17.9,0001.4,0017.39,0012.62,0012.10
2024-03-26 22:55:00,SystemResetWarning,0820.9,5.00,000.00,020.2,019.6,000.0,028.8,022.0,17.9,0001.1,0017.52,0012.54,0012.02
2024-03-26 22:56:00,SystemResetWarning,0820.7,5.00,000.00,020.2,019.6,000.0,028.8,022.0,17.7,0000.9,0017.48,0012.40,0011.93
2024-03-26 22:57:00,SystemResetWarning,0821.0,5.00,000.00,020.2,019.6,000.0,028.8,022.1,17.8,0000.9,0017.71,0012.31,0011.85
2024-03-26 22:58:00,SystemResetWarning,0821.0,4.99,000.00,020.2,019.6,000.0,028.8,022.1,17.8,0000.8,0018.12,0012.20,0011.75
2024-03-26 22:59:00,SystemResetWarning,0820.7,4.99,000.00,020.2,019.6,000.0,028.8,022.1,17.8,0000.7,0017.71,0012.11,0011.68
